Time,TemperatureF,DewpointF,PressureIn,WindDirection,WindDirectionDegrees,WindSpeedMPH,WindSpeedGustMPH,Humidity,HourlyPrecipIn,Conditions,Clouds,dailyrainin,SoftwareType,DateUTC
2013-02-27 00:00:00,39.6,39.1,29.61,West,271,0.0,2.0,98,0.00,,---,0.87,VWS V14.01,2013-02-27 05:00:00,
2013-02-27 00:05:00,39.5,39.0,29.61,West,271,0.0,2.0,98,0.00,,---,0.00,VWS V14.01,2013-02-27 05:05:00,
2013-02-27 00:10:00,39.6,39.1,29.61,WNW,283,1.0,6.0,98,0.00,,---,0.00,VWS V14.01,2013-02-27 05:10:00,
2013-02-27 00:15:00,39.7,39.2,29.61,West,269,0.0,5.0,98,0.00,,---,0.00,VWS V14.01,2013-02-27 05:15:00,
2013-02-27 00:20:00,39.7,39.2,29.61,West,269,0.0,3.0,98,0.00,,---,0.00,VWS V14.01,2013-02-27 05:20:00,
2013-02-27 00:25:00,39.7,39.2,29.61,West,266,2.0,6.0,98,0.00,,---,0.00,VWS V14.01,2013-02-27 05:25:00,
2013-02-27 00:30:00,39.6,39.1,29.61,WNW,303,3.0,4.0,98,0.00,,---,0.00,VWS V14.01,2013-02-27 05:30:00,
2013-02-27 00:35:00,39.6,39.1,29.61,WNW,303,0.0,3.0,98,0.00,,---,0.00,VWS V14.01,2013-02-27 05:35:00,
2013-02-27 00:40:00,39.5,39.0,29.61,WNW,290,0.0,4.0,98,0.00,,---,0.00,VWS V14.01,2013-02-27 05:40:00,
2013-02-27 00:45:00,39.5,39.0,29.60,WNW,290,0.0,2.0,98,0.00,,---,0.00,VWS V14.01,2013-02-27 05:45:00,
2013-02-27 00:50:00,39.4,38.9,29.60,WNW,290,1.0,1.0,98,0.00,,---,0.00,VWS V14.01,2013-02-27 05:50:00,
2013-02-27 00:55:00,39.3,38.8,29.60,WNW,290,0.0,1.0,98,0.00,,---,0.00,VWS V14.01,2013-02-27 05:55:00,
2013-02-27 01:00:00,39.3,38.8,29.60,WNW,290,1.0,2.0,98,0.00,,---,0.00,VWS V14.01,2013-02-27 06:00:00,
2013-02-27 01:05:00,39.2,38.7,29.60,WNW,290,2.0,4.0,98,0.00,,---,0.00,VWS V14.01,2013-02-27 06:05:00,
2013-02-27 01:10:00,39.2,38.7,29.60,WNW,290,1.0,3.0,98,0.00,,---,0.00,VWS V14.01,2013-02-27 06:10:00,
2013-02-27 01:15:00,39.2,38.7,29.60,WNW,290,0.0,2.0,98,0.00,,---,0.00,VWS V14.01,2013-02-27 06:15:00,
2013-02-27 01:20:00,39.0,38.5,29.60,West,270,1.0,3.0,98,0.00,,---,0.00,VWS V14.01,2013-02-27 06:20:00,
2013-02-27 01:25:00,38.8,38.3,29.61,West,270,1.0,2.0,98,0.00,,---,0.00,VWS V14.01,2013-02-27 06:25:00,
2013-02-27 01:30:00,38.6,38.1,29.61,West,270,0.0,2.0,98,0.00,,---,0.00,VWS V14.01,2013-02-27 06:30:00,
2013-02-27 01:35:00,38.5,38.0,29.61,West,269,2.0,6.0,98,0.01,,---,0.01,VWS V14.01,2013-02-27 06:35:00,
2013-02-27 01:40:00,38.7,38.2,29.61,West,269,2.0,3.0,98,0.01,,---,0.01,VWS V14.01,2013-02-27 06:40:00,
2013-02-27 01:45:00,38.8,38.3,29.61,NW,313,0.0,9.0,98,0.01,,---,0.01,VWS V14.01,2013-02-27 06:45:00,
2013-02-27 01:50:00,38.8,38.3,29.61,NW,306,2.0,3.0,98,0.01,,---,0.01,VWS V14.01,2013-02-27 06:50:00,
2013-02-27 01:55:00,38.8,38.3,29.61,NW,315,0.0,4.0,98,0.01,,---,0.01,VWS V14.01,2013-02-27 06:55:00,
2013-02-27 02:00:00,38.9,38.4,29.61,NW,315,0.0,2.0,98,0.01,,---,0.01,VWS V14.01,2013-02-27 07:00:00,
2013-02-27 02:05:00,38.9,38.4,29.61,WNW,291,3.0,3.0,98,0.01,,---,0.01,VWS V14.01,2013-02-27 07:05:00,
2013-02-27 02:10:00,38.9,38.4,29.61,WNW,290,0.0,4.0,98,0.01,,---,0.01,VWS V14.01,2013-02-27 07:10:00,
2013-02-27 02:15:00,38.9,38.4,29.61,WNW,290,0.0,2.0,98,0.01,,---,0.01,VWS V14.01,2013-02-27 07:15:00,
2013-02-27 02:20:00,38.9,38.4,29.60,WNW,290,0.0,1.0,98,0.01,,---,0.01,VWS V14.01,2013-02-27 07:20:00,
2013-02-27 02:25:00,38.9,38.4,29.60,WNW,290,0.0,0.0,98,0.01,,---,0.01,VWS V14.01,2013-02-27 07:25:00,
2013-02-27 02:30:00,38.9,38.4,29.60,WNW,290,0.0,1.0,98,0.01,,---,0.01,VWS V14.01,2013-02-27 07:30:00,
2013-02-27 02:35:00,38.9,38.4,29.60,WNW,290,0.0,2.0,98,0.01,,---,0.01,VWS V14.01,2013-02-27 07:35:00,
2013-02-27 02:40:00,38.8,38.3,29.59,WNW,290,0.0,1.0,98,0.01,,---,0.01,VWS V14.01,2013-02-27 07:40:00,
2013-02-27 02:45:00,38.8,38.3,29.60,WNW,290,1.0,1.0,98,0.00,,---,0.01,VWS V14.01,2013-02-27 07:45:00,
2013-02-27 02:50:00,38.7,38.2,29.59,WNW,290,1.0,2.0,98,0.00,,---,0.01,VWS V14.01,2013-02-27 07:50:00,
2013-02-27 02:55:00,38.7,38.2,29.59,WNW,289,2.0,3.0,98,0.00,,---,0.01,VWS V14.01,2013-02-27 07:55:00,
2013-02-27 03:00:00,38.6,38.1,29.59,WNW,289,2.0,3.0,98,0.00,,---,0.01,VWS V14.01,2013-02-27 08:00:00,
2013-02-27 03:05:00,38.6,38.1,29.59,West,262,1.0,3.0,98,0.00,,---,0.01,VWS V14.01,2013-02-27 08:05:00,
2013-02-27 03:10:00,38.6,38.1,29.59,West,262,1.0,2.0,98,0.00,,---,0.01,VWS V14.01,2013-02-27 08:10:00,
2013-02-27 03:15:00,38.6,38.1,29.59,West,262,1.0,3.0,98,0.00,,---,0.01,VWS V14.01,2013-02-27 08:15:00,
2013-02-27 03:20:00,38.6,38.1,29.59,West,262,2.0,3.0,98,0.00,,---,0.01,VWS V14.01,2013-02-27 08:20:00,
2013-02-27 03:25:00,38.6,38.1,29.59,West,262,0.0,2.0,98,0.00,,---,0.01,VWS V14.01,2013-02-27 08:25:00,
2013-02-27 03:30:00,38.7,38.2,29.59,West,262,1.0,2.0,98,0.00,,---,0.01,VWS V14.01,2013-02-27 08:30:00,
2013-02-27 03:35:00,38.7,38.2,29.59,West,262,2.0,3.0,98,0.00,,---,0.01,VWS V14.01,2013-02-27 08:35:00,
2013-02-27 03:40:00,38.6,38.1,29.59,West,262,2.0,3.0,98,0.00,,---,0.01,VWS V14.01,2013-02-27 08:40:00,
2013-02-27 03:45:00,38.6,38.1,29.59,West,262,2.0,2.0,98,0.00,,---,0.01,VWS V14.01,2013-02-27 08:45:00,
2013-02-27 03:50:00,38.6,38.1,29.58,West,262,1.0,2.0,98,0.00,,---,0.01,VWS V14.01,2013-02-27 08:50:00,
2013-02-27 03:55:00,38.6,38.1,29.58,West,262,0.0,2.0,98,0.00,,---,0.01,VWS V14.01,2013-02-27 08:55:00,
2013-02-27 04:00:00,38.6,38.1,29.59,West,262,1.0,1.0,98,0.00,,---,0.01,VWS V14.01,2013-02-27 09:00:00,
2013-02-27 04:05:00,38.6,38.1,29.59,West,262,0.0,1.0,98,0.00,,---,0.01,VWS V14.01,2013-02-27 09:05:00,
2013-02-27 04:10:00,38.6,38.1,29.59,West,262,1.0,1.0,98,0.00,,---,0.01,VWS V14.01,2013-02-27 09:10:00,
2013-02-27 04:15:00,38.7,38.2,29.60,West,262,2.0,3.0,98,0.00,,---,0.01,VWS V14.01,2013-02-27 09:15:00,
2013-02-27 04:20:00,38.8,38.3,29.60,SW,231,1.0,3.0,98,0.00,,---,0.01,VWS V14.01,2013-02-27 09:20:00,
2013-02-27 04:25:00,38.6,38.1,29.60,SW,231,3.0,3.0,98,0.00,,---,0.01,VWS V14.01,2013-02-27 09:25:00,
2013-02-27 04:30:00,38.4,37.9,29.60,SW,227,1.0,2.0,98,0.00,,---,0.01,VWS V14.01,2013-02-27 09:30:00,
2013-02-27 04:35:00,38.2,37.7,29.60,SW,227,2.0,3.0,98,0.00,,---,0.01,VWS V14.01,2013-02-27 09:35:00,
2013-02-27 04:40:00,38.0,37.5,29.60,SW,227,1.0,3.0,98,0.00,,---,0.01,VWS V14.01,2013-02-27 09:40:00,
2013-02-27 04:45:00,37.8,37.3,29.61,SSW,200,1.0,3.0,98,0.00,,---,0.01,VWS V14.01,2013-02-27 09:45:00,
2013-02-27 04:50:00,37.8,37.3,29.61,South,190,0.0,2.0,98,0.00,,---,0.01,VWS V14.01,2013-02-27 09:50:00,
2013-02-27 04:55:00,37.6,37.1,29.61,South,190,2.0,4.0,98,0.00,,---,0.01,VWS V14.01,2013-02-27 09:55:00,
2013-02-27 05:00:00,37.4,36.9,29.61,SSE,151,3.0,4.0,98,0.00,,---,0.01,VWS V14.01,2013-02-27 10:00:00,
2013-02-27 05:05:00,37.3,36.8,29.61,SSE,148,0.0,3.0,98,0.00,,---,0.01,VWS V14.01,2013-02-27 10:05:00,
2013-02-27 05:10:00,37.1,36.6,29.61,SSE,148,4.0,4.0,98,0.00,,---,0.01,VWS V14.01,2013-02-27 10:10:00,
2013-02-27 05:15:00,37.0,36.5,29.61,SSE,150,0.0,4.0,98,0.00,,---,0.01,VWS V14.01,2013-02-27 10:15:00,
2013-02-27 05:20:00,36.8,36.3,29.61,SSE,150,0.0,1.0,98,0.00,,---,0.01,VWS V14.01,2013-02-27 10:20:00,
2013-02-27 05:25:00,36.6,36.1,29.62,SSE,150,0.0,1.0,98,0.00,,---,0.01,VWS V14.01,2013-02-27 10:25:00,
2013-02-27 05:30:00,36.4,35.9,29.62,SSE,150,0.0,2.0,98,0.00,,---,0.01,VWS V14.01,2013-02-27 10:30:00,
2013-02-27 05:35:00,36.4,35.9,29.62,SSE,150,2.0,2.0,98,0.00,,---,0.01,VWS V14.01,2013-02-27 10:35:00,
2013-02-27 05:40:00,36.2,35.7,29.62,SSE,150,0.0,2.0,98,0.00,,---,0.01,VWS V14.01,2013-02-27 10:40:00,
2013-02-27 05:45:00,36.2,35.7,29.63,SSE,150,0.0,1.0,98,0.00,,---,0.01,VWS V14.01,2013-02-27 10:45:00,
2013-02-27 05:50:00,36.4,35.9,29.63,SSE,150,1.0,2.0,98,0.00,,---,0.01,VWS V14.01,2013-02-27 10:50:00,
2013-02-27 05:55:00,36.6,36.1,29.63,West,276,1.0,7.0,98,0.00,,---,0.01,VWS V14.01,2013-02-27 10:55:00,
2013-02-27 06:00:00,36.9,36.4,29.63,West,274,0.0,2.0,98,0.00,,---,0.01,VWS V14.01,2013-02-27 11:00:00,
2013-02-27 06:05:00,36.8,36.3,29.63,NW,317,1.0,5.0,98,0.00,,---,0.01,VWS V14.01,2013-02-27 11:05:00,
2013-02-27 06:10:00,36.9,36.4,29.64,WNW,294,0.0,3.0,98,0.00,,---,0.01,VWS V14.01,2013-02-27 11:10:00,
2013-02-27 06:15:00,37.0,36.5,29.63,NW,320,0.0,3.0,98,0.00,,---,0.01,VWS V14.01,2013-02-27 11:15:00,
2013-02-27 06:20:00,37.3,36.8,29.64,WNW,292,1.0,5.0,98,0.00,,---,0.01,VWS V14.01,2013-02-27 11:20:00,
2013-02-27 06:25:00,37.4,36.9,29.63,WNW,290,1.0,3.0,98,0.00,,---,0.01,VWS V14.01,2013-02-27 11:25:00,
2013-02-27 06:30:00,37.5,36.7,29.63,SSW,192,2.0,3.0,97,0.00,,---,0.01,VWS V14.01,2013-02-27 11:30:00,
2013-02-27 06:35:00,37.7,36.7,29.63,South,182,1.0,3.0,96,0.00,,---,0.01,VWS V14.01,2013-02-27 11:35:00,
2013-02-27 06:40:00,37.8,36.5,29.64,North,360,1.0,3.0,95,0.00,,---,0.01,VWS V14.01,2013-02-27 11:40:00,
2013-02-27 06:45:00,37.9,36.3,29.64,North,355,1.0,11.0,94,0.00,,---,0.01,VWS V14.01,2013-02-27 11:45:00,
2013-02-27 06:50:00,38.2,36.4,29.64,North,355,2.0,6.0,93,0.00,,---,0.01,VWS V14.01,2013-02-27 11:50:00,
2013-02-27 06:55:00,38.7,36.3,29.65,WNW,297,0.0,3.0,91,0.00,,---,0.01,VWS V14.01,2013-02-27 11:55:00,
2013-02-27 07:00:00,38.9,36.5,29.65,WSW,238,2.0,5.0,91,0.00,,---,0.01,VWS V14.01,2013-02-27 12:00:00,
2013-02-27 07:05:00,38.7,36.0,29.65,WSW,244,1.0,5.0,90,0.00,,---,0.01,VWS V14.01,2013-02-27 12:05:00,
2013-02-27 07:10:00,38.5,35.8,29.65,West,265,1.0,3.0,90,0.00,,---,0.01,VWS V14.01,2013-02-27 12:10:00,
2013-02-27 07:15:00,38.3,35.9,29.66,SW,235,2.0,4.0,91,0.00,,---,0.01,VWS V14.01,2013-02-27 12:15:00,
2013-02-27 07:19:00,38.3,35.9,29.66,WNW,285,2.0,5.0,91,0.00,,---,0.01,VWS V14.01,2013-02-27 12:19:00,
2013-02-27 07:24:00,38.6,35.9,29.67,WSW,238,1.0,4.0,90,0.00,,---,0.01,VWS V14.01,2013-02-27 12:24:00,
2013-02-27 07:29:00,39.0,36.0,29.67,WSW,254,3.0,5.0,89,0.00,,---,0.01,VWS V14.01,2013-02-27 12:29:00,
2013-02-27 07:34:00,39.3,36.3,29.68,WNW,282,2.0,7.0,89,0.00,,---,0.01,VWS V14.01,2013-02-27 12:34:00,
2013-02-27 07:39:00,39.5,36.2,29.68,WSW,257,0.0,7.0,88,0.00,,---,0.01,VWS V14.01,2013-02-27 12:39:00,
2013-02-27 07:44:00,40.0,36.7,29.68,WNW,301,4.0,10.0,88,0.00,,---,0.01,VWS V14.01,2013-02-27 12:44:00,
2013-02-27 07:49:00,40.6,36.8,29.69,West,269,2.0,6.0,86,0.00,,---,0.01,VWS V14.01,2013-02-27 12:49:00,
2013-02-27 07:54:00,40.9,37.0,29.69,West,272,2.0,6.0,86,0.00,,---,0.01,VWS V14.01,2013-02-27 12:54:00,
2013-02-27 07:59:00,41.1,37.2,29.69,WNW,282,3.0,9.0,86,0.00,,---,0.01,VWS V14.01,2013-02-27 12:59:00,
2013-02-27 08:04:00,41.3,37.1,29.70,WNW,296,1.0,4.0,85,0.00,,---,0.01,VWS V14.01,2013-02-27 13:04:00,
2013-02-27 08:09:00,41.5,37.0,29.70,WNW,294,4.0,8.0,84,0.00,,---,0.01,VWS V14.01,2013-02-27 13:09:00,
2013-02-27 08:14:00,41.8,37.0,29.71,NNW,341,3.0,7.0,83,0.00,,---,0.01,VWS V14.01,2013-02-27 13:14:00,
2013-02-27 08:19:00,42.1,37.0,29.70,NW,312,1.0,6.0,82,0.00,,---,0.01,VWS V14.01,2013-02-27 13:19:00,
2013-02-27 08:24:00,42.3,37.2,29.71,NNW,329,5.0,5.0,82,0.00,,---,0.01,VWS V14.01,2013-02-27 13:24:00,
2013-02-27 08:29:00,42.5,37.1,29.71,NW,308,4.0,6.0,81,0.00,,---,0.01,VWS V14.01,2013-02-27 13:29:00,
2013-02-27 08:34:00,42.7,37.0,29.71,NNW,329,2.0,4.0,80,0.00,,---,0.01,VWS V14.01,2013-02-27 13:34:00,
2013-02-27 08:39:00,42.9,36.8,29.70,NW,319,1.0,5.0,79,0.00,,---,0.01,VWS V14.01,2013-02-27 13:39:00,
2013-02-27 08:44:00,43.1,37.0,29.70,WSW,253,0.0,5.0,79,0.00,,---,0.01,VWS V14.01,2013-02-27 13:44:00,
2013-02-27 08:49:00,43.2,36.8,29.70,WSW,253,2.0,3.0,78,0.00,,---,0.01,VWS V14.01,2013-02-27 13:49:00,
2013-02-27 08:54:00,43.4,36.7,29.71,NW,305,4.0,7.0,77,0.00,,---,0.01,VWS V14.01,2013-02-27 13:54:00,
2013-02-27 08:59:00,43.9,36.5,29.71,WNW,288,4.0,6.0,75,0.00,,---,0.01,VWS V14.01,2013-02-27 13:59:00,
2013-02-27 09:04:00,44.2,36.8,29.72,WNW,297,4.0,4.0,75,0.00,,---,0.01,VWS V14.01,2013-02-27 14:04:00,
2013-02-27 09:09:00,44.7,38.3,29.72,NNW,339,1.0,6.0,78,0.00,,---,0.01,VWS V14.01,2013-02-27 14:09:00,
2013-02-27 09:14:00,45.1,37.3,29.73,NW,315,0.0,6.0,74,0.00,,---,0.01,VWS V14.01,2013-02-27 14:14:00,
2013-02-27 09:19:00,45.2,36.4,29.72,WSW,254,1.0,5.0,71,0.00,,---,0.01,VWS V14.01,2013-02-27 14:19:00,
2013-02-27 09:24:00,45.2,36.7,29.72,NW,315,1.0,8.0,72,0.00,,---,0.01,VWS V14.01,2013-02-27 14:24:00,
2013-02-27 09:29:00,45.3,35.4,29.72,NNW,330,3.0,7.0,68,0.00,,---,0.01,VWS V14.01,2013-02-27 14:29:00,
2013-02-27 09:34:00,45.6,35.7,29.72,NW,315,8.0,10.0,68,0.00,,---,0.01,VWS V14.01,2013-02-27 14:34:00,
2013-02-27 09:39:00,45.9,34.8,29.72,NW,321,3.0,8.0,65,0.00,,---,0.01,VWS V14.01,2013-02-27 14:39:00,
2013-02-27 09:44:00,46.0,36.0,29.72,WNW,299,5.0,6.0,68,0.00,,---,0.01,VWS V14.01,2013-02-27 14:44:00,
2013-02-27 09:49:00,46.1,34.6,29.73,NW,325,2.0,7.0,64,0.00,,---,0.01,VWS V14.01,2013-02-27 14:49:00,
2013-02-27 09:54:00,46.1,35.0,29.73,SW,234,3.0,10.0,65,0.00,,---,0.01,VWS V14.01,2013-02-27 14:54:00,
2013-02-27 09:59:00,46.3,34.4,29.73,SW,234,3.0,6.0,63,0.00,,---,0.01,VWS V14.01,2013-02-27 14:59:00,
2013-02-27 10:04:00,46.4,36.0,29.73,West,280,3.0,7.0,67,0.00,,---,0.01,VWS V14.01,2013-02-27 15:04:00,
2013-02-27 10:09:00,46.7,36.0,29.73,NW,311,4.0,8.0,66,0.00,,---,0.01,VWS V14.01,2013-02-27 15:09:00,
2013-02-27 10:14:00,47.1,36.3,29.73,NW,312,3.0,6.0,66,0.00,,---,0.01,VWS V14.01,2013-02-27 15:14:00,
2013-02-27 10:19:00,47.6,35.2,29.74,West,277,4.0,8.0,62,0.00,,---,0.01,VWS V14.01,2013-02-27 15:19:00,
2013-02-27 10:24:00,47.9,36.3,29.74,WSW,257,1.0,6.0,64,0.00,,---,0.01,VWS V14.01,2013-02-27 15:24:00,
2013-02-27 10:29:00,48.0,34.8,29.74,NW,304,7.0,18.0,60,0.00,,---,0.01,VWS V14.01,2013-02-27 15:29:00,
2013-02-27 10:34:00,48.1,36.1,29.73,NW,322,7.0,9.0,63,0.00,,---,0.01,VWS V14.01,2013-02-27 15:34:00,
2013-02-27 10:39:00,47.9,34.3,29.73,NW,314,4.0,8.0,59,0.00,,---,0.01,VWS V14.01,2013-02-27 15:39:00,
2013-02-27 10:44:00,47.8,35.8,29.73,West,259,5.0,8.0,63,0.00,,---,0.01,VWS V14.01,2013-02-27 15:44:00,
2013-02-27 10:49:00,47.8,36.2,29.73,NW,313,2.0,12.0,64,0.00,,---,0.01,VWS V14.01,2013-02-27 15:49:00,
2013-02-27 10:54:00,47.7,35.7,29.73,NNW,335,2.0,9.0,63,0.00,,---,0.01,VWS V14.01,2013-02-27 15:54:00,
2013-02-27 10:59:00,47.7,34.5,29.74,NW,311,4.0,12.0,60,0.00,,---,0.01,VWS V14.01,2013-02-27 15:59:00,
2013-02-27 11:04:00,47.5,35.5,29.74,WNW,296,3.0,13.0,63,0.00,,---,0.01,VWS V14.01,2013-02-27 16:04:00,
2013-02-27 11:09:00,47.4,33.8,29.75,WSW,249,4.0,10.0,59,0.00,,---,0.01,VWS V14.01,2013-02-27 16:09:00,
2013-02-27 11:14:00,47.4,34.6,29.75,NW,313,6.0,15.0,61,0.00,,---,0.01,VWS V14.01,2013-02-27 16:14:00,
2013-02-27 11:19:00,47.2,33.6,29.74,WNW,299,7.0,12.0,59,0.00,,---,0.01,VWS V14.01,2013-02-27 16:19:00,
2013-02-27 11:24:00,47.1,33.9,29.75,West,277,6.0,10.0,60,0.00,,---,0.01,VWS V14.01,2013-02-27 16:24:00,
2013-02-27 11:29:00,47.1,33.1,29.75,West,263,4.0,9.0,58,0.00,,---,0.01,VWS V14.01,2013-02-27 16:29:00,
2013-02-27 11:34:00,47.1,34.4,29.75,WNW,292,3.0,9.0,61,0.00,,---,0.01,VWS V14.01,2013-02-27 16:34:00,
2013-02-27 11:39:00,47.2,34.5,29.75,NW,311,3.0,8.0,61,0.00,,---,0.01,VWS V14.01,2013-02-27 16:39:00,
2013-02-27 11:44:00,47.3,34.1,29.75,NW,310,1.0,6.0,60,0.00,,---,0.01,VWS V14.01,2013-02-27 16:44:00,
2013-02-27 11:49:00,47.4,34.2,29.75,NW,315,5.0,7.0,60,0.00,,---,0.01,VWS V14.01,2013-02-27 16:49:00,
2013-02-27 11:54:00,47.5,34.7,29.75,NW,309,3.0,10.0,61,0.00,,---,0.01,VWS V14.01,2013-02-27 16:54:00,
2013-02-27 11:59:00,47.7,35.3,29.75,WNW,303,3.0,7.0,62,0.00,,---,0.01,VWS V14.01,2013-02-27 16:59:00,
2013-02-27 12:04:00,47.8,34.2,29.75,WNW,300,1.0,7.0,59,0.00,,---,0.01,VWS V14.01,2013-02-27 17:04:00,
2013-02-27 12:09:00,47.9,34.7,29.75,NW,324,2.0,9.0,60,0.00,,---,0.01,VWS V14.01,2013-02-27 17:09:00,
2013-02-27 12:14:00,48.0,34.4,29.75,NW,306,5.0,9.0,59,0.00,,---,0.01,VWS V14.01,2013-02-27 17:14:00,
2013-02-27 12:19:00,48.0,33.9,29.75,NNW,340,2.0,7.0,58,0.00,,---,0.01,VWS V14.01,2013-02-27 17:19:00,
2013-02-27 12:24:00,48.2,35.0,29.75,WNW,296,3.0,4.0,60,0.00,,---,0.01,VWS V14.01,2013-02-27 17:24:00,
2013-02-27 12:29:00,48.1,34.0,29.75,WNW,295,1.0,8.0,58,0.00,,---,0.01,VWS V14.01,2013-02-27 17:29:00,
2013-02-27 12:34:00,48.1,34.0,29.75,WNW,283,3.0,12.0,58,0.00,,---,0.01,VWS V14.01,2013-02-27 17:34:00,
2013-02-27 12:39:00,48.1,33.6,29.75,WSW,242,3.0,9.0,57,0.00,,---,0.01,VWS V14.01,2013-02-27 17:39:00,
2013-02-27 12:44:00,48.5,34.0,29.75,West,260,1.0,8.0,57,0.00,,---,0.01,VWS V14.01,2013-02-27 17:44:00,
2013-02-27 12:49:00,48.6,34.9,29.75,NNW,331,4.0,7.0,59,0.00,,---,0.01,VWS V14.01,2013-02-27 17:49:00,
2013-02-27 12:54:00,48.1,33.6,29.74,NW,320,4.0,8.0,57,0.00,,---,0.01,VWS V14.01,2013-02-27 17:54:00,
2013-02-27 12:59:00,48.1,34.5,29.74,NW,307,5.0,6.0,59,0.00,,---,0.01,VWS V14.01,2013-02-27 17:59:00,
2013-02-27 13:04:00,48.1,34.0,29.74,North,355,4.0,9.0,58,0.00,,---,0.01,VWS V14.01,2013-02-27 18:04:00,
2013-02-27 13:09:00,48.2,34.1,29.74,WNW,297,2.0,9.0,58,0.00,,---,0.01,VWS V14.01,2013-02-27 18:09:00,
2013-02-27 13:14:00,48.3,34.2,29.73,NNW,328,2.0,6.0,58,0.00,,---,0.01,VWS V14.01,2013-02-27 18:14:00,
2013-02-27 13:19:00,48.3,34.7,29.73,North,350,1.0,10.0,59,0.00,,---,0.01,VWS V14.01,2013-02-27 18:19:00,
2013-02-27 13:24:00,49.0,34.9,29.73,WNW,282,4.0,6.0,58,0.00,,---,0.01,VWS V14.01,2013-02-27 18:24:00,
2013-02-27 13:29:00,49.4,34.8,29.73,NNW,347,6.0,8.0,57,0.00,,---,0.01,VWS V14.01,2013-02-27 18:29:00,
2013-02-27 13:34:00,49.5,34.9,29.73,NNW,338,1.0,6.0,57,0.00,,---,0.01,VWS V14.01,2013-02-27 18:34:00,
2013-02-27 13:39:00,49.4,34.4,29.73,NW,317,6.0,8.0,56,0.00,,---,0.01,VWS V14.01,2013-02-27 18:39:00,
2013-02-27 13:44:00,49.1,34.5,29.73,NW,313,3.0,7.0,57,0.00,,---,0.01,VWS V14.01,2013-02-27 18:44:00,
2013-02-27 13:49:00,48.9,34.3,29.73,NW,313,5.0,7.0,57,0.00,,---,0.01,VWS V14.01,2013-02-27 18:49:00,
2013-02-27 13:54:00,48.8,34.3,29.73,NNW,333,3.0,9.0,57,0.00,,---,0.01,VWS V14.01,2013-02-27 18:54:00,
2013-02-27 13:59:00,49.2,34.2,29.72,NW,315,3.0,6.0,56,0.00,,---,0.01,VWS V14.01,2013-02-27 18:59:00,
2013-02-27 14:04:00,49.1,34.1,29.72,NW,308,3.0,7.0,56,0.00,,---,0.01,VWS V14.01,2013-02-27 19:04:00,
2013-02-27 14:09:00,48.8,34.3,29.72,NW,317,2.0,8.0,57,0.00,,---,0.01,VWS V14.01,2013-02-27 19:09:00,
2013-02-27 14:14:00,48.8,34.7,29.72,WSW,257,2.0,5.0,58,0.00,,---,0.01,VWS V14.01,2013-02-27 19:14:00,
2013-02-27 14:19:00,48.7,33.7,29.72,WNW,298,6.0,7.0,56,0.00,,---,0.01,VWS V14.01,2013-02-27 19:19:00,
2013-02-27 14:24:00,48.5,34.0,29.71,NW,321,1.0,7.0,57,0.00,,---,0.01,VWS V14.01,2013-02-27 19:24:00,
2013-02-27 14:29:00,48.5,34.8,29.71,WNW,302,2.0,2.0,59,0.00,,---,0.01,VWS V14.01,2013-02-27 19:29:00,
2013-02-27 14:34:00,48.8,34.7,29.72,WNW,301,2.0,6.0,58,0.00,,---,0.01,VWS V14.01,2013-02-27 19:34:00,
2013-02-27 14:39:00,49.4,34.8,29.72,WNW,284,5.0,7.0,57,0.00,,---,0.01,VWS V14.01,2013-02-27 19:39:00,
2013-02-27 14:43:00,49.4,34.4,29.71,WNW,288,2.0,5.0,56,0.00,,---,0.01,VWS V14.01,2013-02-27 19:43:00,
2013-02-27 14:48:00,49.2,35.1,29.71,SW,236,1.0,4.0,58,0.00,,---,0.01,VWS V14.01,2013-02-27 19:48:00,
2013-02-27 14:53:00,49.3,36.0,29.71,SW,224,3.0,6.0,60,0.00,,---,0.01,VWS V14.01,2013-02-27 19:53:00,
2013-02-27 14:58:00,49.3,36.0,29.71,WSW,242,4.0,7.0,60,0.00,,---,0.01,VWS V14.01,2013-02-27 19:58:00,
2013-02-27 15:03:00,49.1,34.5,29.71,WSW,242,8.0,11.0,57,0.00,,---,0.01,VWS V14.01,2013-02-27 20:03:00,
2013-02-27 15:08:00,48.8,35.1,29.71,NW,309,2.0,8.0,59,0.00,,---,0.01,VWS V14.01,2013-02-27 20:08:00,
2013-02-27 15:13:00,48.8,35.1,29.71,WNW,298,5.0,6.0,59,0.00,,---,0.01,VWS V14.01,2013-02-27 20:13:00,
2013-02-27 15:18:00,49.1,34.5,29.71,SW,219,6.0,9.0,57,0.00,,---,0.01,VWS V14.01,2013-02-27 20:18:00,
2013-02-27 15:23:00,49.2,34.6,29.71,NW,315,3.0,10.0,57,0.00,,---,0.01,VWS V14.01,2013-02-27 20:23:00,
2013-02-27 15:28:00,49.2,35.1,29.71,West,273,2.0,5.0,58,0.00,,---,0.01,VWS V14.01,2013-02-27 20:28:00,
2013-02-27 15:33:00,49.4,34.8,29.71,NW,322,6.0,7.0,57,0.00,,---,0.01,VWS V14.01,2013-02-27 20:33:00,
2013-02-27 15:38:00,49.5,34.9,29.71,West,263,2.0,6.0,57,0.00,,---,0.01,VWS V14.01,2013-02-27 20:38:00,
2013-02-27 15:43:00,49.5,34.9,29.71,SW,234,3.0,8.0,57,0.00,,---,0.01,VWS V14.01,2013-02-27 20:43:00,
2013-02-27 15:48:00,49.6,35.0,29.72,NW,309,5.0,12.0,57,0.00,,---,0.01,VWS V14.01,2013-02-27 20:48:00,
2013-02-27 15:53:00,49.6,35.0,29.72,NNW,339,7.0,12.0,57,0.00,,---,0.01,VWS V14.01,2013-02-27 20:53:00,
2013-02-27 15:58:00,49.5,34.5,29.72,West,267,4.0,14.0,56,0.00,,---,0.01,VWS V14.01,2013-02-27 20:58:00,
2013-02-27 16:03:00,49.5,34.9,29.72,West,262,4.0,10.0,57,0.00,,---,0.01,VWS V14.01,2013-02-27 21:03:00,
2013-02-27 16:08:00,49.6,34.6,29.71,NW,304,4.0,6.0,56,0.00,,---,0.01,VWS V14.01,2013-02-27 21:08:00,
2013-02-27 16:13:00,49.7,35.5,29.71,NNE,13,5.0,7.0,58,0.00,,---,0.01,VWS V14.01,2013-02-27 21:13:00,
2013-02-27 16:18:00,49.6,34.6,29.71,NNW,342,2.0,11.0,56,0.00,,---,0.01,VWS V14.01,2013-02-27 21:18:00,
2013-02-27 16:23:00,49.6,34.6,29.71,NW,325,3.0,7.0,56,0.00,,---,0.01,VWS V14.01,2013-02-27 21:23:00,
2013-02-27 16:28:00,49.6,34.1,29.71,West,269,2.0,5.0,55,0.00,,---,0.01,VWS V14.01,2013-02-27 21:28:00,
2013-02-27 16:33:00,49.6,34.6,29.71,NW,313,3.0,6.0,56,0.00,,---,0.01,VWS V14.01,2013-02-27 21:33:00,
2013-02-27 16:38:00,49.4,33.9,29.70,NW,304,3.0,11.0,55,0.00,,---,0.01,VWS V14.01,2013-02-27 21:38:00,
2013-02-27 16:43:00,49.3,34.7,29.71,West,279,1.0,10.0,57,0.00,,---,0.01,VWS V14.01,2013-02-27 21:43:00,
2013-02-27 16:48:00,49.0,34.5,29.70,NW,323,3.0,7.0,57,0.00,,---,0.01,VWS V14.01,2013-02-27 21:48:00,
2013-02-27 16:53:00,48.9,34.3,29.70,WNW,297,3.0,9.0,57,0.00,,---,0.01,VWS V14.01,2013-02-27 21:53:00,
2013-02-27 16:58:00,48.9,34.3,29.71,WSW,250,3.0,7.0,57,0.00,,---,0.01,VWS V14.01,2013-02-27 21:58:00,
2013-02-27 17:03:00,48.8,34.7,29.71,SW,236,3.0,5.0,58,0.00,,---,0.01,VWS V14.01,2013-02-27 22:03:00,
2013-02-27 17:08:00,48.8,34.7,29.71,NW,313,2.0,7.0,58,0.00,,---,0.01,VWS V14.01,2013-02-27 22:08:00,
2013-02-27 17:13:00,48.7,34.6,29.71,WSW,257,5.0,6.0,58,0.00,,---,0.01,VWS V14.01,2013-02-27 22:13:00,
2013-02-27 17:18:00,48.6,34.5,29.71,NW,325,4.0,9.0,58,0.00,,---,0.01,VWS V14.01,2013-02-27 22:18:00,
2013-02-27 17:23:00,48.4,34.8,29.71,NW,318,2.0,6.0,59,0.00,,---,0.01,VWS V14.01,2013-02-27 22:23:00,
2013-02-27 17:28:00,48.1,34.5,29.71,West,273,4.0,5.0,59,0.00,,---,0.01,VWS V14.01,2013-02-27 22:28:00,
2013-02-27 17:33:00,47.9,34.3,29.71,NW,317,2.0,4.0,59,0.00,,---,0.01,VWS V14.01,2013-02-27 22:33:00,
2013-02-27 17:38:00,47.8,34.6,29.71,WNW,296,3.0,5.0,60,0.00,,---,0.01,VWS V14.01,2013-02-27 22:38:00,
2013-02-27 17:43:00,47.7,34.9,29.71,NW,321,1.0,5.0,61,0.00,,---,0.01,VWS V14.01,2013-02-27 22:43:00,
2013-02-27 17:48:00,47.6,34.4,29.71,NW,317,2.0,6.0,60,0.00,,---,0.01,VWS V14.01,2013-02-27 22:48:00,
2013-02-27 17:53:00,47.4,34.2,29.70,NNW,329,4.0,5.0,60,0.00,,---,0.01,VWS V14.01,2013-02-27 22:53:00,
2013-02-27 17:58:00,47.3,34.5,29.71,NW,319,1.0,4.0,61,0.00,,---,0.01,VWS V14.01,2013-02-27 22:58:00,
2013-02-27 18:03:00,47.0,34.3,29.71,WNW,296,1.0,4.0,61,0.00,,---,0.01,VWS V14.01,2013-02-27 23:03:00,
2013-02-27 18:08:00,46.8,34.5,29.71,NNW,345,2.0,4.0,62,0.00,,---,0.01,VWS V14.01,2013-02-27 23:08:00,
2013-02-27 18:13:00,46.5,34.2,29.71,NNW,345,2.0,3.0,62,0.00,,---,0.01,VWS V14.01,2013-02-27 23:13:00,
2013-02-27 18:18:00,46.2,34.7,29.71,NNW,345,2.0,4.0,64,0.00,,---,0.01,VWS V14.01,2013-02-27 23:18:00,
2013-02-27 18:23:00,45.9,34.4,29.71,NNW,345,3.0,4.0,64,0.00,,---,0.01,VWS V14.01,2013-02-27 23:23:00,
2013-02-27 18:28:00,45.5,34.0,29.71,NNW,335,5.0,5.0,64,0.00,,---,0.01,VWS V14.01,2013-02-27 23:28:00,
2013-02-27 18:33:00,45.4,34.3,29.70,NNW,338,4.0,6.0,65,0.00,,---,0.01,VWS V14.01,2013-02-27 23:33:00,
2013-02-27 18:38:00,45.2,34.2,29.71,NNW,342,4.0,6.0,65,0.00,,---,0.01,VWS V14.01,2013-02-27 23:38:00,
2013-02-27 18:43:00,45.2,34.2,29.71,NNW,341,5.0,5.0,65,0.00,,---,0.01,VWS V14.01,2013-02-27 23:43:00,
2013-02-27 18:48:00,45.0,34.0,29.71,NW,315,2.0,6.0,65,0.00,,---,0.01,VWS V14.01,2013-02-27 23:48:00,
2013-02-27 18:53:00,44.8,34.2,29.72,North,355,3.0,4.0,66,0.00,,---,0.01,VWS V14.01,2013-02-27 23:53:00,
2013-02-27 18:58:00,44.6,34.0,29.72,NNW,336,3.0,6.0,66,0.00,,---,0.01,VWS V14.01,2013-02-27 23:58:00,
2013-02-27 19:03:00,44.6,34.0,29.72,NW,316,4.0,7.0,66,0.00,,---,0.01,VWS V14.01,2013-02-28 00:03:00,
2013-02-27 19:08:00,44.4,34.1,29.72,NNW,338,3.0,6.0,67,0.00,,---,0.01,VWS V14.01,2013-02-28 00:08:00,
2013-02-27 19:13:00,44.1,33.9,29.72,NW,306,2.0,8.0,67,0.00,,---,0.01,VWS V14.01,2013-02-28 00:13:00,
2013-02-27 19:18:00,44.0,34.1,29.72,NNW,348,3.0,5.0,68,0.00,,---,0.01,VWS V14.01,2013-02-28 00:18:00,
2013-02-27 19:23:00,43.8,33.9,29.72,NW,318,1.0,7.0,68,0.00,,---,0.01,VWS V14.01,2013-02-28 00:23:00,
2013-02-27 19:28:00,43.8,34.3,29.72,North,355,4.0,7.0,69,0.00,,---,0.01,VWS V14.01,2013-02-28 00:28:00,
2013-02-27 19:33:00,43.7,33.8,29.72,North,350,4.0,7.0,68,0.00,,---,0.01,VWS V14.01,2013-02-28 00:33:00,
2013-02-27 19:38:00,43.8,33.6,29.72,NNW,340,3.0,9.0,67,0.00,,---,0.01,VWS V14.01,2013-02-28 00:38:00,
2013-02-27 19:43:00,43.7,33.8,29.72,NNW,339,6.0,7.0,68,0.00,,---,0.01,VWS V14.01,2013-02-28 00:43:00,
2013-02-27 19:48:00,43.6,33.8,29.72,NNW,329,4.0,9.0,68,0.00,,---,0.01,VWS V14.01,2013-02-28 00:48:00,
2013-02-27 19:53:00,43.4,33.6,29.73,NW,313,4.0,9.0,68,0.00,,---,0.01,VWS V14.01,2013-02-28 00:53:00,
2013-02-27 19:58:00,43.2,33.7,29.72,North,355,5.0,6.0,69,0.00,,---,0.01,VWS V14.01,2013-02-28 00:58:00,
2013-02-27 20:03:00,43.1,33.6,29.73,North,355,3.0,6.0,69,0.00,,---,0.01,VWS V14.01,2013-02-28 01:03:00,
2013-02-27 20:08:00,42.9,33.4,29.73,NW,318,4.0,4.0,69,0.00,,---,0.01,VWS V14.01,2013-02-28 01:08:00,
2013-02-27 20:13:00,42.8,33.3,29.72,NNW,339,2.0,6.0,69,0.00,,---,0.01,VWS V14.01,2013-02-28 01:13:00,
2013-02-27 20:18:00,42.8,33.3,29.72,NW,317,4.0,7.0,69,0.00,,---,0.01,VWS V14.01,2013-02-28 01:18:00,
2013-02-27 20:23:00,42.8,33.3,29.72,NNW,348,3.0,6.0,69,0.00,,---,0.01,VWS V14.01,2013-02-28 01:23:00,
2013-02-27 20:28:00,42.9,33.4,29.72,NW,307,2.0,7.0,69,0.00,,---,0.01,VWS V14.01,2013-02-28 01:28:00,
2013-02-27 20:33:00,42.8,33.3,29.72,NW,308,4.0,8.0,69,0.00,,---,0.01,VWS V14.01,2013-02-28 01:33:00,
2013-02-27 20:38:00,42.8,33.3,29.72,NNW,329,1.0,5.0,69,0.00,,---,0.01,VWS V14.01,2013-02-28 01:38:00,
2013-02-27 20:43:00,42.7,33.2,29.72,NNW,334,1.0,4.0,69,0.00,,---,0.01,VWS V14.01,2013-02-28 01:43:00,
2013-02-27 20:48:00,42.5,33.1,29.71,West,279,0.0,4.0,69,0.00,,---,0.01,VWS V14.01,2013-02-28 01:48:00,
2013-02-27 20:53:00,42.3,33.2,29.71,WNW,302,4.0,4.0,70,0.00,,---,0.01,VWS V14.01,2013-02-28 01:53:00,
2013-02-27 20:58:00,42.2,33.1,29.72,NW,319,2.0,5.0,70,0.00,,---,0.01,VWS V14.01,2013-02-28 01:58:00,
2013-02-27 21:03:00,42.2,33.5,29.72,NNW,330,1.0,4.0,71,0.00,,---,0.01,VWS V14.01,2013-02-28 02:03:00,
2013-02-27 21:08:00,42.0,33.3,29.72,NW,319,6.0,7.0,71,0.00,,---,0.01,VWS V14.01,2013-02-28 02:08:00,
2013-02-27 21:13:00,41.9,33.2,29.72,NNW,348,2.0,7.0,71,0.00,,---,0.01,VWS V14.01,2013-02-28 02:13:00,
2013-02-27 21:18:00,42.0,33.3,29.73,WNW,302,1.0,8.0,71,0.00,,---,0.01,VWS V14.01,2013-02-28 02:18:00,
2013-02-27 21:23:00,42.1,33.4,29.73,WNW,297,1.0,3.0,71,0.00,,---,0.01,VWS V14.01,2013-02-28 02:23:00,
2013-02-27 21:28:00,42.2,33.8,29.73,NW,324,3.0,4.0,72,0.00,,---,0.01,VWS V14.01,2013-02-28 02:28:00,
2013-02-27 21:33:00,42.2,33.8,29.73,WNW,291,4.0,4.0,72,0.00,,---,0.01,VWS V14.01,2013-02-28 02:33:00,
2013-02-27 21:38:00,42.4,33.7,29.73,WNW,296,2.0,6.0,71,0.00,,---,0.01,VWS V14.01,2013-02-28 02:38:00,
2013-02-27 21:43:00,42.5,34.1,29.73,West,261,1.0,6.0,72,0.00,,---,0.01,VWS V14.01,2013-02-28 02:43:00,
2013-02-27 21:48:00,42.6,34.2,29.72,West,259,2.0,7.0,72,0.00,,---,0.01,VWS V14.01,2013-02-28 02:48:00,
2013-02-27 21:53:00,42.7,34.3,29.72,WNW,282,1.0,6.0,72,0.00,,---,0.01,VWS V14.01,2013-02-28 02:53:00,
2013-02-27 21:58:00,42.8,34.4,29.71,NW,322,4.0,9.0,72,0.00,,---,0.01,VWS V14.01,2013-02-28 02:58:00,
2013-02-27 22:03:00,43.2,34.5,29.72,WSW,255,2.0,10.0,71,0.00,,---,0.01,VWS V14.01,2013-02-28 03:03:00,
2013-02-27 22:08:00,43.3,34.5,29.72,WSW,238,2.0,10.0,71,0.00,,---,0.01,VWS V14.01,2013-02-28 03:08:00,
2013-02-27 22:13:00,43.3,34.5,29.72,SSW,208,7.0,8.0,71,0.00,,---,0.01,VWS V14.01,2013-02-28 03:13:00,
2013-02-27 22:18:00,43.3,34.5,29.72,WSW,258,0.0,11.0,71,0.00,,---,0.01,VWS V14.01,2013-02-28 03:18:00,
2013-02-27 22:23:00,43.2,34.5,29.72,WSW,248,1.0,3.0,71,0.00,,---,0.01,VWS V14.01,2013-02-28 03:23:00,
2013-02-27 22:28:00,43.1,34.3,29.71,WNW,282,2.0,8.0,71,0.00,,---,0.01,VWS V14.01,2013-02-28 03:28:00,
2013-02-27 22:33:00,43.0,34.2,29.71,West,260,4.0,8.0,71,0.00,,---,0.01,VWS V14.01,2013-02-28 03:33:00,
2013-02-27 22:38:00,43.0,34.2,29.71,SW,229,2.0,5.0,71,0.00,,---,0.01,VWS V14.01,2013-02-28 03:38:00,
2013-02-27 22:43:00,42.9,34.2,29.70,West,266,2.0,4.0,71,0.00,,---,0.01,VWS V14.01,2013-02-28 03:43:00,
2013-02-27 22:48:00,42.9,34.2,29.70,WSW,249,1.0,4.0,71,0.00,,---,0.01,VWS V14.01,2013-02-28 03:48:00,
2013-02-27 22:53:00,42.7,34.0,29.70,WSW,249,2.0,3.0,71,0.00,,---,0.01,VWS V14.01,2013-02-28 03:53:00,
2013-02-27 22:58:00,42.4,33.7,29.70,NW,315,3.0,6.0,71,0.00,,---,0.01,VWS V14.01,2013-02-28 03:58:00,
2013-02-27 23:03:00,42.5,33.8,29.70,WNW,293,4.0,13.0,71,0.00,,---,0.01,VWS V14.01,2013-02-28 04:03:00,
2013-02-27 23:08:00,42.7,33.6,29.70,West,261,6.0,11.0,70,0.00,,---,0.01,VWS V14.01,2013-02-28 04:08:00,
2013-02-27 23:13:00,42.5,33.4,29.70,West,267,5.0,11.0,70,0.00,,---,0.01,VWS V14.01,2013-02-28 04:13:00,
2013-02-27 23:18:00,42.5,33.4,29.70,West,261,2.0,6.0,70,0.00,,---,0.01,VWS V14.01,2013-02-28 04:18:00,
2013-02-27 23:23:00,42.4,33.3,29.70,SSW,211,1.0,7.0,70,0.00,,---,0.01,VWS V14.01,2013-02-28 04:23:00,
2013-02-27 23:28:00,42.4,33.3,29.70,West,281,2.0,5.0,70,0.00,,---,0.01,VWS V14.01,2013-02-28 04:28:00,
2013-02-27 23:33:00,42.3,33.2,29.70,WNW,286,0.0,4.0,70,0.00,,---,0.01,VWS V14.01,2013-02-28 04:33:00,
2013-02-27 23:38:00,42.2,33.5,29.70,West,263,2.0,8.0,71,0.00,,---,0.01,VWS V14.01,2013-02-28 04:38:00,
2013-02-27 23:43:00,42.1,33.4,29.70,WSW,248,4.0,9.0,71,0.00,,---,0.01,VWS V14.01,2013-02-28 04:43:00,
2013-02-27 23:48:00,42.0,33.3,29.69,WSW,246,4.0,6.0,71,0.00,,---,0.01,VWS V14.01,2013-02-28 04:48:00,
2013-02-27 23:53:00,42.0,33.3,29.69,WNW,292,4.0,8.0,71,0.00,,---,0.01,VWS V14.01,2013-02-28 04:53:00,
2013-02-27 23:58:00,41.8,33.1,29.69,WNW,303,2.0,6.0,71,0.00,,---,0.01,VWS V14.01,2013-02-28 04:58:00,